This is the latest recevied weather packets stored in our database for station/object KK7RJD. If no packets are shown the sender has not sent any weather packets the latest 10 day(s).
| Time | Temp. | Humidity | Pressure | Rain* | Wind** | Luminosity | Snow |
|---|---|---|---|---|---|---|---|
| 1777676202 | 20° C | 18% | 1018.1 hPa | 0 mm | - | 475 W/m² | - |
| 1777675898 | 20.56° C | 18% | 1017.9 hPa | 0 mm | - | 493 W/m² | - |
| 1777675595 | 20.56° C | 20% | 1017.9 hPa | 0 mm | - | 497 W/m² | - |
| 1777675293 | 20.56° C | 19% | 1018.1 hPa | 0 mm | - | 528 W/m² | - |
| 1777674989 | 20.56° C | 19% | 1018.2 hPa | 0 mm | - | 544 W/m² | - |
| 1777674686 | 21.11° C | 19% | 1018.3 hPa | 0 mm | - | 560 W/m² | - |
| 1777674388 | 20.56° C | 19% | 1018.3 hPa | 0 mm | - | 575 W/m² | - |
| 1777674080 | 20° C | 20% | 1018.4 hPa | 0 mm | - | 591 W/m² | - |
| 1777673776 | 19.44° C | 21% | 1018.4 hPa | 0 mm | - | 607 W/m² | - |
| 1777673473 | 19.44° C | 21% | 1018.6 hPa | 0 mm | - | 618 W/m² | - |
| 1777673171 | 20° C | 21% | 1018.6 hPa | 0 mm | - | 635 W/m² | - |
| 1777672868 | 20° C | 21% | 1018.5 hPa | 0 mm | - | 645 W/m² | - |
| 1777672564 | 20.56° C | 22% | 1018.6 hPa | 0 mm | - | 663 W/m² | - |
| 1777672259 | 20.56° C | 20% | 1018.6 hPa | 0 mm | - | 682 W/m² | - |
| 1777671954 | 20° C | 21% | 1018.9 hPa | 0 mm | - | 693 W/m² | - |
| 1777671650 | 20.56° C | 21% | 1019 hPa | 0 mm | - | 708 W/m² | - |
| 1777671347 | 20° C | 20% | 1018.7 hPa | 0 mm | - | 718 W/m² | - |
| 1777671044 | 20° C | 21% | 1019 hPa | 0 mm | - | 733 W/m² | - |
| 1777670740 | 20.56° C | 20% | 1019 hPa | 0 mm | - | 739 W/m² | - |
| 1777670437 | 19.44° C | 22% | 1019 hPa | 0 mm | - | 752 W/m² | - |
| 1777670134 | 19.44° C | 21% | 1019.1 hPa | 0 mm | - | 767 W/m² | - |
| 1777669832 | 20° C | 23% | 1019.1 hPa | 0 mm | - | 777 W/m² | - |
| 1777669527 | 19.44° C | 22% | 1019.2 hPa | 0 mm | - | 789 W/m² | - |
| 1777669225 | 20° C | 21% | 1019.2 hPa | 0 mm | - | 800 W/m² | - |
| 1777668921 | 20° C | 23% | 1019.2 hPa | 0 mm | - | 809 W/m² | - |
* Rain latest hour (hover to see other rain measurements)
** Current wind speed in m/s (hover to see current wind gust speed)